Simultaneous Nadir Overpasses (SNOs) Predictions

Prediction of SNOs between TERRA and METOP-C Satellite Orbit:

Table of predicted SNOs for the next 14.0 days since TLE Epoch: 12/24/2022
Index Date (TERRA) Time (TERRA) Lat,Lon (TERRA) SZA (TERRA ) Date (METOP-C) Time (METOP-C) Lat,Lon (METOP-C) SZA (METOP-C ) Distance(km) Time Diff (sec)
1 12/25/2022 16:53:48 80.96, -37.36 105.94 12/25/2022 16:52:58 80.95, -37.51 105.90 2.64 50
2 12/25/2022 17:43:10 -80.98, 130.61 74.02 12/25/2022 17:43:36 -80.98, 130.49 74.02 2.14 26
3 12/28/2022 09:05:26 80.95, 79.65 105.79 12/28/2022 09:04:37 80.95, 79.50 105.75 2.64 49
4 12/28/2022 09:54:48 -80.98,-112.38 74.17 12/28/2022 09:55:15 -80.98,-112.50 74.17 2.08 27
5 12/31/2022 01:17:02 80.96,-163.13 105.62 12/31/2022 01:16:14 80.96,-163.18 105.59 1.16 48
6 12/31/2022 02:06:24 -80.99, 4.84 74.34 12/31/2022 02:06:52 -80.99, 4.82 74.33 0.23 28
7 01/02/2023 17:28:39 80.96, -46.05 105.37 01/02/2023 17:27:52 80.97, -45.92 105.37 2.16 47
8 01/02/2023 18:18:01 -80.99, 121.92 74.59 01/02/2023 18:18:30 -81.00, 122.10 74.56 3.26 29
9 01/05/2023 09:40:16 80.95, 70.90 105.05 01/05/2023 09:39:31 80.95, 70.91 105.04 0.31 45



Historial Predications of SNOs between TERRA and METOP-C
